When you browse on this site, cookies collect data to enhance your experience and personalize the content and advertising you see.
Visit our Privacy Policy to learn more. By continuing to use the site, you agree to this use of cookies and data.
  • In Hungary
  • List of Countries
  • For 7 days
  • Water Temperature
  • Satellite Maps
  • Weather Map
  • News
  • Weather Widgets
  • user-avatar
    Login

    Hourly Weather El Paso

    Today, 22 February, Friday

    Time Temperature Precipitation Wind Pressure Humidity
    00:00 +9°C° 0 mm 3 mps 655 mmHg 36%
    01:00 +8°C° 0 mm 3 mps 655 mmHg 41%
    02:00 +7°C° 0 mm 3 mps 655 mmHg 47%
    03:00 +7°C° 0 mm 2 mps 656 mmHg 48%
    04:00 +7°C° 0 mm 2 mps 656 mmHg 50%
    05:00 +8°C° 0 mm 1 mps 656 mmHg 51%
    06:00 +7°C° 0 mm 2 mps 656 mmHg 48%
    07:00 +8°C° 0 mm 3 mps 656 mmHg 45%
    08:00 +7°C° 0 mm 4 mps 656 mmHg 42%
    09:00 +9°C° 0 mm 6 mps 656 mmHg 38%
    10:00 +11°C° 0 mm 9 mps 656 mmHg 33%
    11:00 +13°C° 0 mm 11 mps 656 mmHg 28%
    12:00 +14°C° 0 mm 12 mps 656 mmHg 25%
    13:00 +15°C° 0 mm 13 mps 655 mmHg 22%
    14:00 +18°C° 0 mm 14 mps 655 mmHg 19%
    15:00 +13°C° 0.1 mm 13 mps 654 mmHg 31%
    16:00 +9°C° 0.1 mm 12 mps 654 mmHg 43%
    17:00 +4°C° 0.1 mm 12 mps 653 mmHg 54%
    18:00 +3°C° 0.5 mm 11 mps 655 mmHg 56%
    19:00 +3°C° 0.5 mm 11 mps 656 mmHg 57%
    20:00 +2°C° 0.5 mm 11 mps 658 mmHg 58%
    21:00 +1°C° 0 mm 11 mps 659 mmHg 57%
    22:00 +1°C° 0 mm 11 mps 659 mmHg 56%
    23:00 -1°C° 0 mm 11 mps 660 mmHg 54%

    Tomorrow, 23 February, Saturday

    Time Temperature Precipitation Wind Pressure Humidity
    00:00 -1°C° 0 mm 11 mps 660 mmHg 57%
    01:00 -2°C° 0 mm 10 mps 660 mmHg 60%
    02:00 -2°C° 0 mm 10 mps 661 mmHg 62%
    03:00 -3°C° 0 mm 9 mps 661 mmHg 63%
    04:00 -3°C° 0 mm 9 mps 661 mmHg 65%
    05:00 -2°C° 0 mm 8 mps 661 mmHg 66%
    06:00 -2°C° 0 mm 8 mps 662 mmHg 62%
    07:00 -2°C° 0 mm 8 mps 662 mmHg 59%
    08:00 -2°C° 0 mm 7 mps 663 mmHg 56%
    09:00 0°C° 0 mm 7 mps 663 mmHg 49%
    10:00 +2°C° 0 mm 7 mps 664 mmHg 42%
    11:00 +4°C° 0 mm 7 mps 664 mmHg 35%
    12:00 +5°C° 0 mm 7 mps 664 mmHg 31%
    13:00 +6°C° 0 mm 7 mps 664 mmHg 27%
    14:00 +9°C° 0 mm 6 mps 663 mmHg 24%
    15:00 +9°C° 0 mm 6 mps 664 mmHg 24%
    16:00 +9°C° 0 mm 6 mps 664 mmHg 24%
    17:00 +9°C° 0 mm 5 mps 664 mmHg 23%
    18:00 +8°C° 0 mm 4 mps 664 mmHg 26%
    19:00 +8°C° 0 mm 3 mps 664 mmHg 29%
    20:00 +7°C° 0 mm 3 mps 665 mmHg 32%
    21:00 +6°C° 0 mm 2 mps 665 mmHg 34%
    22:00 +6°C° 0 mm 2 mps 665 mmHg 37%
    23:00 +6°C° 0 mm 1 mps 665 mmHg 39%

    Day after tomorrow, 24 February, Sunday

    Time Temperature Precipitation Wind Pressure Humidity
    00:00 +5°C° 0 mm 1 mps 665 mmHg 41%
    01:00 +5°C° 0 mm 1 mps 665 mmHg 42%
    02:00 +3°C° 0 mm 0 mps 665 mmHg 44%
    03:00 +3°C° 0 mm 0 mps 664 mmHg 45%
    04:00 +3°C° 0 mm 0 mps 664 mmHg 45%
    05:00 +2°C° 0 mm 0 mps 664 mmHg 46%
    06:00 +3°C° 0 mm 0 mps 664 mmHg 43%
    07:00 +4°C° 0 mm 0 mps 665 mmHg 39%
    08:00 +6°C° 0 mm 1 mps 666 mmHg 36%
    09:00 +8°C° 0 mm 1 mps 666 mmHg 31%
    10:00 +9°C° 0 mm 2 mps 666 mmHg 25%
    11:00 +12°C° 0 mm 2 mps 666 mmHg 20%
    12:00 +12°C° 0 mm 3 mps 665 mmHg 18%
    13:00 +14°C° 0 mm 3 mps 665 mmHg 15%
    14:00 +16°C° 0 mm 3 mps 664 mmHg 13%
    15:00 +17°C° 0 mm 2 mps 664 mmHg 13%
    16:00 +17°C° 0 mm 2 mps 664 mmHg 13%
    17:00 +19°C° 0 mm 1 mps 663 mmHg 13%
    18:00 +16°C° 0 mm 1 mps 663 mmHg 14%
    19:00 +15°C° 0 mm 2 mps 663 mmHg 16%
    20:00 +14°C° 0 mm 2 mps 663 mmHg 17%
    21:00 +13°C° 0 mm 2 mps 663 mmHg 18%
    22:00 +12°C° 0 mm 2 mps 663 mmHg 19%
    23:00 +12°C° 0 mm 2 mps 663 mmHg 20%

    25 February, Monday

    Time Temperature Precipitation Wind Pressure Humidity
    00:00 +10°C° 0 mm 2 mps 663 mmHg 21%
    01:00 +9°C° 0 mm 2 mps 662 mmHg 23%
    02:00 +9°C° 0 mm 2 mps 662 mmHg 25%
    03:00 +8°C° 0 mm 2 mps 662 mmHg 26%
    04:00 +8°C° 0 mm 2 mps 661 mmHg 28%
    05:00 +7°C° 0 mm 2 mps 661 mmHg 29%
    06:00 +8°C° 0 mm 2 mps 661 mmHg 29%
    07:00 +8°C° 0 mm 2 mps 662 mmHg 28%
    08:00 +10°C° 0 mm 1 mps 663 mmHg 28%
    09:00 +12°C° 0 mm 2 mps 663 mmHg 25%
    10:00 +14°C° 0 mm 2 mps 663 mmHg 21%
    11:00 +16°C° 0 mm 2 mps 664 mmHg 18%
    12:00 +17°C° 0 mm 2 mps 663 mmHg 16%
    13:00 +18°C° 0 mm 2 mps 663 mmHg 15%
    14:00 +19°C° 0 mm 3 mps 662 mmHg 13%
    15:00 +19°C° 0 mm 3 mps 662 mmHg 12%
    16:00 +19°C° 0 mm 3 mps 662 mmHg 12%
    17:00 +19°C° 0 mm 4 mps 662 mmHg 11%
    18:00 +18°C° 0 mm 3 mps 662 mmHg 14%
    19:00 +16°C° 0 mm 2 mps 662 mmHg 16%
    20:00 +15°C° 0 mm 1 mps 662 mmHg 18%
    21:00 +14°C° 0 mm 1 mps 662 mmHg 19%
    22:00 +14°C° 0 mm 1 mps 662 mmHg 19%
    23:00 +13°C° 0 mm 1 mps 662 mmHg 20%

    26 February, Tuesday

    Time Temperature Precipitation Wind Pressure Humidity
    00:00 +13°C° 0 mm 1 mps 662 mmHg 22%
    01:00 +12°C° 0 mm 1 mps 661 mmHg 24%
    02:00 +11°C° 0 mm 1 mps 661 mmHg 26%
    03:00 +11°C° 0 mm 1 mps 661 mmHg 28%
    04:00 +9°C° 0 mm 2 mps 661 mmHg 30%
    05:00 +9°C° 0 mm 2 mps 661 mmHg 32%
    06:00 +10°C° 0 mm 2 mps 662 mmHg 31%
    07:00 +11°C° 0 mm 1 mps 662 mmHg 31%
    08:00 +12°C° 0 mm 1 mps 663 mmHg 30%
    09:00 +14°C° 0 mm 2 mps 663 mmHg 27%
    10:00 +16°C° 0 mm 3 mps 664 mmHg 23%
    11:00 +17°C° 0 mm 4 mps 664 mmHg 20%
    12:00 +17°C° 0 mm 5 mps 664 mmHg 18%
    13:00 +19°C° 0 mm 5 mps 664 mmHg 16%
    14:00 +21°C° 0 mm 6 mps 663 mmHg 13%
    15:00 +20°C° 0 mm 6 mps 663 mmHg 13%
    16:00 +20°C° 0 mm 6 mps 663 mmHg 14%
    17:00 +20°C° 0 mm 6 mps 663 mmHg 14%
    18:00 +19°C° 0 mm 5 mps 663 mmHg 16%
    19:00 +18°C° 0 mm 4 mps 663 mmHg 18%
    20:00 +16°C° 0 mm 3 mps 663 mmHg 20%
    21:00 +16°C° 0 mm 3 mps 663 mmHg 21%
    22:00 +14°C° 0 mm 3 mps 663 mmHg 23%
    23:00 +13°C° 0 mm 3 mps 663 mmHg 25%

    27 February, Wednesday

    Time Temperature Precipitation Wind Pressure Humidity
    00:00 +13°C° 0 mm 2 mps 663 mmHg 26%
    01:00 +13°C° 0 mm 2 mps 663 mmHg 28%
    02:00 +12°C° 0 mm 2 mps 663 mmHg 29%
    03:00 +12°C° 0 mm 2 mps 662 mmHg 30%
    04:00 +10°C° 0 mm 2 mps 662 mmHg 31%
    05:00 +11°C° 0 mm 1 mps 662 mmHg 32%
    06:00 +12°C° 0 mm 2 mps 663 mmHg 31%
    07:00 +12°C° 0 mm 2 mps 663 mmHg 30%
    08:00 +13°C° 0 mm 2 mps 664 mmHg 29%
    09:00 +14°C° 0 mm 3 mps 664 mmHg 26%
    10:00 +17°C° 0 mm 3 mps 664 mmHg 23%
    11:00 +19°C° 0 mm 4 mps 665 mmHg 19%
    12:00 +20°C° 0 mm 4 mps 664 mmHg 18%
    13:00 +21°C° 0 mm 5 mps 664 mmHg 16%
    14:00 +22°C° 0 mm 5 mps 663 mmHg 15%
    15:00 +22°C° 0 mm 5 mps 663 mmHg 15%
    16:00 +22°C° 0 mm 6 mps 663 mmHg 15%
    17:00 +22°C° 0 mm 6 mps 663 mmHg 15%
    18:00 +21°C° 0 mm 5 mps 663 mmHg 17%
    19:00 +20°C° 0 mm 4 mps 663 mmHg 19%
    20:00 +18°C° 0 mm 4 mps 663 mmHg 21%
    21:00 +17°C° 0 mm 4 mps 663 mmHg 23%
    22:00 +17°C° 0 mm 3 mps 662 mmHg 26%
    23:00 +16°C° 0 mm 3 mps 662 mmHg 28%
    Show more